FW8514 Weather Reports


time (UTC)temp
F
wind
direction
speed
knots
gust
knots
rain 1hr
in
rain 24hr
in
rain mn
in
humidity
%
barometer
mb
20260506202040 68 173 0.9 1.7 0.00 0.24 0.24 88 988.8
20260506201538 67 220 2.6 2.6 0.00 0.24 0.24 87 988.8
20260506201034 68 148 1.7 1.7 0.00 0.24 0.24 88 988.7
20260506200530 67 231 3.5 5.2 0.00 0.24 0.24 86 989.1
20260506200027 68 263 3.5 4.3 0.00 0.24 0.24 87 988.8
20260506195524 66 241 1.7 4.3 0.00 0.24 0.24 89 989.0
20260506195020 66 224 2.6 4.3 0.00 0.24 0.24 90 988.8
20260506194518 65 162 3.5 5.2 0.00 0.24 0.24 91 989.0
20260506194014 66 236 3.5 5.2 0.00 0.24 0.24 90 989.3
20260506193512 65 277 4.3 6.1 0.00 0.24 0.24 90 989.2
20260506193009 66 258 3.5 6.1 0.00 0.24 0.24 90 988.9
20260506192505 65 210 0.9 1.7 0.00 0.24 0.24 93 989.1
20260506192001 64 247 3.5 4.3 0.00 0.24 0.24 93 989.5
20260506191458 63 233 3.5 5.2 0.00 0.24 0.24 95 989.5
20260506190954 63 277 2.6 2.6 0.00 0.24 0.24 96 989.4
20260506190452 62 194 0.9 1.7 0.00 0.24 0.24 96 989.6
20260506185948 62 169 1.7 1.7 0.00 0.24 0.24 97 989.6
20260506185446 62 275 2.6 2.6 0.00 0.24 0.24 98 989.5
20260506184942 62 251 2.6 2.6 0.00 0.24 0.24 98 989.5
20260506184439 61 249 0.0 0.9 0.00 0.24 0.24 99 989.5
20260506183936 61 197 1.7 1.7 0.00 0.24 0.24 99 989.7
20260506183432 61 250 1.7 1.7 0.00 0.24 0.24 99 990.0
20260506182929 61 258 2.6 2.6 0.00 0.24 0.24 99 989.9
20260506182426 61 242 2.6 4.3 0.00 0.24 0.24 99 990.2
20260506181924 61 203 4.3 5.2 0.00 0.24 0.24 99 989.9
20260506181422 61 224 4.3 6.1 0.00 0.24 0.24 99 990.0
20260506180918 61 193 0.0 0.9 0.00 0.24 0.24 99 990.1
20260506180414 61 266 4.3 5.2 0.00 0.24 0.24 98 990.0
20260506175911 61 192 2.6 2.6 0.00 0.24 0.24 98 990.0
20260506175408 61 238 3.5 5.2 0.00 0.24 0.24 97 989.8
20260506174905 61 243 4.3 4.3 0.00 0.24 0.24 96 990.0
20260506174403 61 223 2.6 2.6 0.00 0.24 0.24 97 989.9
20260506173900 61 255 3.5 4.3 0.00 0.24 0.24 98 989.8
20260506173356 60 215 2.6 5.2 0.00 0.24 0.24 98 990.0
20260506172853 60 262 5.2 7.8 0.00 0.24 0.24 99 990.0
20260506172350 60 261 3.5 4.3 0.00 0.24 0.24 99 989.7
20260506171847 61 224 3.5 4.3 0.00 0.24 0.24 99 989.9
20260506171344 60 253 2.6 2.6 0.00 0.24 0.24 99 989.9
20260506170842 60 239 2.6 4.3 0.00 0.24 0.24 99 990.3
20260506170338 60 217 4.3 6.1 0.00 0.24 0.24 99 990.3
20260506165837 60 255 3.5 5.2 0.00 0.24 0.24 99 990.1
20260506165335 60 295 7.0 7.8 0.00 0.24 0.24 99 990.0
20260506164831 61 267 0.9 1.7 0.00 0.24 0.24 99 990.1
20260506164328 61 223 2.6 4.3 0.00 0.24 0.24 99 990.2
20260506163825 61 257 4.3 5.2 0.00 0.24 0.24 99 990.0
20260506163320 61 241 6.1 6.1 0.00 0.24 0.24 99 989.6
20260506162815 61 85 1.7 2.6 0.07 0.24 0.24 99 989.7
20260506162314 61 129 2.6 2.6 0.07 0.24 0.24 99 989.9
20260506161811 61 167 1.7 1.7 0.00 0.23 0.23 99 989.9
20260506161308 60 149 1.7 1.7 0.05 0.23 0.23 99 989.8
20260506160806 60 265 4.3 5.2 0.05 0.23 0.23 99 990.1
20260506160302 60 174 4.3 5.2 0.07 0.22 0.22 99 990.5
20260506155801 60 152 2.6 4.3 0.07 0.22 0.22 99 990.8
20260506155257 60 178 1.7 2.6 0.05 0.21 0.21 99 991.1
20260506153410 60 211 2.6 4.3 0.12 0.18 0.18 99 991.3
20260506152907 60 189 1.7 1.7 0.12 0.17 0.17 99 991.3
20260506152404 60 213 1.7 1.7 0.19 0.16 0.16 99 991.4
20260506151903 60 218 1.7 1.7 0.14 0.14 0.14 99 991.5
20260506151359 60 255 1.7 1.7 0.12 0.13 0.13 99 991.3
20260506150857 60 234 2.6 4.3 0.17 0.12 0.12 99 991.2
20260506150353 60 149 4.3 7.0 0.19 0.11 0.11 99 991.2
20260506145849 60 253 1.7 2.6 0.07 0.09 0.09 99 991.3
20260506145345 61 252 1.7 2.6 0.12 0.09 0.09 99 991.1
20260506144844 61 213 2.6 2.6 0.05 0.08 0.08 98 991.1
20260506144340 61 230 0.0 0.0 0.07 0.07 0.07 98 991.1
20260506143838 61 197 0.0 1.7 0.12 0.07 0.07 97 991.1
20260506143335 61 251 2.6 2.6 0.12 0.06 0.06 97 991.1
20260506142833 61 230 2.6 2.6 0.12 0.05 0.05 96 991.2
20260506142331 61 237 2.6 2.6 0.12 0.04 0.04 96 991.2
20260506141829 62 215 1.7 2.6 0.12 0.03 0.03 95 991.5
20260506141327 62 306 1.7 2.6 0.12 0.02 0.02 93 991.5
20260506140825 63 220 0.9 0.9 0.07 0.01 0.01 92 991.4
20260506140321 63 176 1.7 1.7 0.00 0.00 0.00 89 991.4
20260506135818 63 231 4.3 5.2 0.00 0.00 0.00 89 991.2
20260506135314 64 221 2.6 2.6 0.00 0.00 0.00 88 991.1
20260506134811 64 245 4.3 6.1 0.00 0.00 0.00 87 991.1
20260506134308 64 224 2.6 2.6 0.00 0.00 0.00 86 991.1
20260506133805 65 228 3.5 4.3 0.00 0.00 0.00 87 991.1
20260506133301 65 265 2.6 2.6 0.00 0.00 0.00 85 991.2
20260506132758 64 246 3.5 4.3 0.00 0.00 0.00 86 991.2
20260506132255 64 272 2.6 2.6 0.00 0.00 0.00 85 991.3
20260506131754 64 260 2.6 2.6 0.00 0.00 0.00 86 991.5
20260506131249 64 265 1.7 1.7 0.00 0.00 0.00 85 991.2
20260506130746 64 259 4.3 6.1 0.00 0.00 0.00 85 991.1
20260506130243 64 227 1.7 2.6 0.00 0.00 0.00 84 991.3
20260506125741 65 264 3.5 5.2 0.00 0.00 0.00 83 991.4
20260506125239 65 254 2.6 2.6 0.00 0.00 0.00 83 991.5
20260506124737 66 276 2.6 2.6 0.00 0.00 0.00 81 991.7
20260506124234 65 238 4.3 5.2 0.00 0.00 0.00 81 991.5
20260506123731 66 131 6.1 7.8 0.00 0.00 0.00 81 991.4
20260506123230 66 250 2.6 2.6 0.00 0.00 0.00 81 991.3
20260506122726 66 222 1.7 1.7 0.00 0.00 0.00 80 991.3
20260506122224 66 237 1.7 1.7 0.00 0.00 0.00 80 991.0
20260506121722 66 259 1.7 1.7 0.00 0.00 0.00 80 991.0
20260506121218 66 259 0.9 1.7 0.00 0.00 0.00 80 991.1
20260506120716 66 242 4.3 6.1 0.00 0.00 0.00 81 990.9
20260506120213 66 226 4.3 6.1 0.00 0.00 0.00 80 991.1
20260506115711 66 252 0.9 1.7 0.00 0.00 0.00 80 990.7
20260506115209 66 244 1.7 2.6 0.00 0.00 0.00 81 990.7
20260506114706 66 231 1.7 1.7 0.00 0.00 0.00 80 990.8
20260506114204 65 183 2.6 4.3 0.00 0.00 0.00 80 990.7
20260506113703 65 254 3.5 5.2 0.00 0.00 0.00 81 990.7
20260506113200 65 270 2.6 4.3 0.00 0.00 0.00 80 990.7
20260506112655 65 271 2.6 2.6 0.00 0.00 0.00 81 990.7
20260506112153 65 262 4.3 6.1 0.00 0.00 0.00 80 990.7
20260506111651 65 234 2.6 2.6 0.00 0.00 0.00 80 990.7
20260506111149 65 259 2.6 2.6 0.00 0.00 0.00 80 990.7
20260506110646 65 237 4.3 6.1 0.00 0.00 0.00 80 990.8
20260506110143 65 105 3.5 5.2 0.00 0.00 0.00 80 990.6
20260506105639 65 291 3.5 5.2 0.00 0.00 0.00 80 990.4
20260506105136 65 226 5.2 6.1 0.00 0.00 0.00 79 990.3
20260506104634 65 243 3.5 5.2 0.00 0.00 0.00 80 990.7
20260506104132 65 65 2.6 2.6 0.00 0.00 0.00 80 990.6
20260506103629 65 213 1.7 2.6 0.00 0.00 0.00 80 990.6
20260506103126 66 240 2.6 2.6 0.00 0.00 0.00 79 990.6
20260506102624 66 275 3.5 5.2 0.00 0.00 0.00 79 990.4
20260506102121 66 228 3.5 4.3 0.00 0.00 0.00 79 990.3
20260506101617 65 181 2.6 2.6 0.00 0.00 0.00 79 990.5
20260506101114 66 230 3.5 5.2 0.00 0.00 0.00 79 990.3
20260506100613 66 245 3.5 5.2 0.00 0.00 0.00 78 990.3
20260506100110 66 269 2.6 2.6 0.00 0.00 0.00 78 990.5
20260506095609 66 207 0.0 0.9 0.00 0.00 0.00 78 990.4
20260506095105 66 238 7.0 8.7 0.00 0.00 0.00 78 990.4
20260506094603 66 239 1.7 2.6 0.00 0.00 0.00 78 990.6
20260506094100 66 275 2.6 2.6 0.00 0.00 0.00 78 990.6
20260506093559 66 197 0.9 1.7 0.00 0.00 0.00 78 990.2
20260506093055 66 264 5.2 7.8 0.00 0.00 0.00 78 990.5
20260506092554 66 238 2.6 4.3 0.00 0.00 0.00 78 990.4
20260506092050 66 236 4.3 6.1 0.00 0.00 0.00 78 990.4
20260506091548 66 207 4.3 7.0 0.00 0.00 0.00 78 990.4
20260506091045 66 187 1.7 1.7 0.00 0.00 0.00 79 990.6
20260506090543 66 252 2.6 2.6 0.00 0.00 0.00 78 990.4
20260506090039 66 236 3.5 4.3 0.00 0.00 0.00 78 990.3
20260506085536 66 227 2.6 4.3 0.00 0.00 0.00 78 990.6
20260506085032 66 216 2.6 2.6 0.00 0.00 0.00 78 990.5
20260506084530 67 249 2.6 2.6 0.00 0.00 0.00 77 990.5
20260506084025 67 212 1.7 2.6 0.00 0.00 0.00 77 990.5
20260506083523 67 162 2.6 4.3 0.00 0.00 0.00 77 990.4
20260506083020 67 208 2.6 4.3 0.00 0.00 0.00 77 990.4
20260506082517 67 157 1.7 2.6 0.00 0.00 0.00 76 990.7
20260506082013 67 253 2.6 2.6 0.00 0.00 0.00 76 990.6
20260506081511 67 340 4.3 6.1 0.00 0.00 0.00 76 990.4
20260506081009 67 254 5.2 7.8 0.00 0.00 0.00 76 990.5
20260506080506 67 248 4.3 7.0 0.00 0.00 0.00 75 990.6
20260506073449 67 235 1.7 2.6 0.00 0.00 0.00 75 990.6
20260506072946 67 209 2.6 4.3 0.00 0.00 0.00 74 990.6
20260506072443 67 221 2.6 4.3 0.00 0.00 0.00 74 990.6
20260506071941 67 180 2.6 2.6 0.00 0.00 0.00 74 990.6
20260506071439 67 229 0.9 1.7 0.00 0.00 0.00 74 990.7
20260506070935 67 275 4.3 6.1 0.00 0.00 0.00 73 990.8
20260506070432 67 256 2.6 2.6 0.00 0.00 0.00 73 990.9
20260506062410 68 242 0.9 1.7 0.00 0.00 0.00 69 991.4
20260506061906 68 211 3.5 5.2 0.00 0.00 0.00 69 991.4
20260506061403 68 253 2.6 4.3 0.00 0.00 0.00 68 991.2
20260506060901 68 195 2.6 4.3 0.00 0.00 0.00 68 991.2
20260506060358 69 171 3.5 4.3 0.00 0.00 0.00 67 991.3
20260506051330 69 197 4.3 5.2 0.00 0.00 0.00 65 991.6
20260506050828 69 213 3.5 5.2 0.00 0.00 0.00 65 991.7
20260506050325 69 250 1.7 2.6 0.00 0.00 0.00 65 991.6
20260506044815 69 253 0.9 1.7 0.00 0.00 0.00 65 991.7
20260506044314 69 199 2.6 2.6 0.00 0.00 0.00 64 991.6
20260506043810 69 255 3.5 6.1 0.00 0.00 0.00 65 992.0
20260506043308 69 229 4.3 5.2 0.00 0.00 0.00 64 991.8
20260506042806 69 248 3.5 4.3 0.00 0.00 0.00 64 991.8
20260506042305 69 240 2.6 4.3 0.00 0.00 0.00 64 991.9
20260506041803 69 203 1.7 1.7 0.00 0.00 0.00 64 992.0
20260506041259 69 236 2.6 4.3 0.00 0.00 0.00 63 991.9
20260506040757 69 248 2.6 2.6 0.00 0.00 0.00 63 991.7
20260506040254 69 241 1.7 1.7 0.00 0.00 0.00 63 991.6
20260506035750 69 214 0.9 0.9 0.00 0.00 0.00 63 991.7
20260506035247 69 193 0.9 1.7 0.00 0.00 0.00 64 991.8
20260506034744 69 215 2.6 4.3 0.00 0.00 0.00 63 991.7
20260506034242 70 146 0.9 0.9 0.00 0.00 0.00 63 991.5
20260506033738 70 194 0.9 1.7 0.00 0.00 0.00 62 991.7
20260506033236 69 239 0.9 0.9 0.00 0.00 0.00 63 991.8
20260506032732 70 235 1.7 4.3 0.00 0.00 0.00 62 991.7
20260506032229 70 256 3.5 4.3 0.00 0.00 0.00 62 991.9
20260506031726 70 198 1.7 1.7 0.00 0.00 0.00 62 991.7
20260506031223 70 224 3.5 6.1 0.00 0.00 0.00 61 991.6
20260506030722 70 225 2.6 4.3 0.00 0.00 0.00 61 991.7
20260506030219 70 189 5.2 7.0 0.00 0.00 0.00 60 991.7
20260506025715 70 212 0.9 1.7 0.00 0.00 0.00 60 991.8
20260506025212 70 193 2.6 2.6 0.00 0.00 0.00 60 991.6
20260506024709 70 177 0.9 0.9 0.00 0.00 0.00 59 991.7
20260506024205 70 174 0.9 0.9 0.00 0.00 0.00 60 991.7
20260506023702 71 163 2.6 2.6 0.00 0.00 0.00 58 991.8
20260506023159 71 227 2.6 5.2 0.00 0.00 0.00 59 991.7
20260506022656 71 244 1.7 1.7 0.00 0.00 0.00 58 991.8
20260506022153 71 203 2.6 4.3 0.00 0.00 0.00 57 991.8
20260506021651 71 248 0.0 0.0 0.00 0.00 0.00 58 991.7
20260506021148 71 206 0.9 0.9 0.00 0.00 0.00 58 991.8
20260506020645 72 113 0.9 0.9 0.00 0.00 0.00 57 992.0
20260506020143 72 200 0.9 1.7 0.00 0.00 0.00 56 991.6
20260506015640 72 257 0.9 1.7 0.00 0.00 0.00 57 991.8
20260506015137 72 194 1.7 2.6 0.00 0.00 0.00 56 991.5
20260506014635 72 240 1.7 2.6 0.00 0.00 0.00 56 991.5
20260506014130 72 234 3.5 5.2 0.00 0.00 0.00 55 991.4
20260506013629 73 214 3.5 4.3 0.00 0.00 0.00 54 991.5
20260506013125 73 267 3.5 4.3 0.00 0.00 0.00 53 991.4
20260506012621 73 161 1.7 2.6 0.00 0.00 0.00 54 991.5
20260506012118 73 230 0.9 0.9 0.00 0.00 0.00 53 991.4
20260506011616 73 233 0.9 1.7 0.00 0.00 0.00 53 991.2
20260506011112 73 209 1.7 2.6 0.00 0.00 0.00 53 991.2
20260506010606 74 270 2.6 4.3 0.00 0.00 0.00 52 991.2
20260506005559 74 230 2.6 2.6 0.00 0.00 0.00 52 991.2
20260506005055 74 201 1.7 1.7 0.00 0.00 0.00 51 991.1
20260506004552 74 227 1.7 1.7 0.00 0.00 0.00 51 990.9
20260506004049 74 158 0.9 1.7 0.00 0.00 0.00 51 990.8
20260506003545 74 224 1.7 1.7 0.00 0.00 0.00 51 990.8
20260506003042 75 229 2.6 2.6 0.00 0.00 0.00 50 990.8
20260506002537 75 236 2.6 2.6 0.00 0.00 0.00 48 990.7
20260506002034 75 231 1.7 2.6 0.00 0.00 0.00 48 990.7
20260506001530 75 204 2.6 2.6 0.00 0.00 0.00 48 990.9
20260506001027 76 261 3.5 4.3 0.00 0.00 0.00 49 990.7
20260506000525 76 245 2.6 2.6 0.00 0.00 0.00 48 990.6
20260506000022 76 229 2.6 2.6 0.00 0.00 0.00 48 990.7
20260505235520 76 240 2.6 2.6 0.00 0.00 0.00 48 990.8
20260505235016 76 244 2.6 2.6 0.00 0.00 0.00 48 990.4
20260505234514 76 250 3.5 5.2 0.00 0.00 0.00 48 990.5
20260505234010 77 232 1.7 1.7 0.00 0.00 0.00 47 990.6
20260505233508 77 147 1.7 1.7 0.00 0.00 0.00 47 990.4
20260505233005 77 248 1.7 1.7 0.00 0.00 0.00 47 990.3
20260505232503 77 262 2.6 4.3 0.00 0.00 0.00 46 990.5
20260505232000 77 202 3.5 5.2 0.00 0.00 0.00 45 990.4
20260505231457 77 212 0.0 0.9 0.00 0.00 0.00 47 990.3
20260505230955 77 235 1.7 2.6 0.00 0.00 0.00 46 990.1
20260505230453 78 253 0.9 0.9 0.00 0.00 0.00 46 990.3
20260505225949 78 242 2.6 2.6 0.00 0.00 0.00 46 990.4
20260505225446 78 242 5.2 7.0 0.00 0.00 0.00 45 990.4
20260505224942 78 219 1.7 2.6 0.00 0.00 0.00 46 990.4
20260505224439 78 249 2.6 4.3 0.00 0.00 0.00 45 990.3
20260505223936 78 232 3.5 4.3 0.00 0.00 0.00 45 990.2
20260505223433 78 242 3.5 5.2 0.00 0.00 0.00 45 990.2
20260505222930 78 189 3.5 5.2 0.00 0.00 0.00 44 990.4
20260505222426 79 245 8.7 11.3 0.00 0.00 0.00 44 990.4
20260505221922 79 273 5.2 7.0 0.00 0.00 0.00 45 990.4
20260505221419 79 278 6.1 8.7 0.00 0.00 0.00 44 990.2
20260505220916 79 200 4.3 6.1 0.00 0.00 0.00 44 990.3
20260505220413 79 273 8.7 9.6 0.00 0.00 0.00 43 990.1
20260505215911 78 226 5.2 7.8 0.00 0.00 0.00 44 990.3
20260505215409 79 265 3.5 6.1 0.00 0.00 0.00 45 990.2
20260505214907 79 270 5.2 7.0 0.00 0.00 0.00 45 990.1
20260505214404 79 241 6.1 8.7 0.00 0.00 0.00 44 990.1
20260505213901 80 191 0.9 1.7 0.00 0.00 0.00 45 990.1
20260505213359 80 268 3.5 5.2 0.00 0.00 0.00 45 990.1
20260505212855 80 281 4.3 5.2 0.00 0.00 0.00 43 990.2
20260505212352 81 177 2.6 4.3 0.00 0.00 0.00 43 990.1
20260505211848 81 206 9.6 11.3 0.00 0.00 0.00 41 990.0
20260505211346 81 243 4.3 6.1 0.00 0.00 0.00 43 990.2
20260505210842 81 210 1.7 2.6 0.00 0.00 0.00 43 990.1
20260505210339 80 225 2.6 4.3 0.00 0.00 0.00 43 990.1
20260505205835 81 236 5.2 6.1 0.00 0.00 0.00 42 990.1
20260505205334 80 234 3.5 6.1 0.00 0.00 0.00 44 990.0
20260505204830 80 217 6.1 9.6 0.00 0.00 0.00 42 990.4
20260505204328 81 251 6.1 8.7 0.00 0.00 0.00 41 990.2
20260505203826 81 238 2.6 4.3 0.00 0.00 0.00 42 990.1
20260505203322 80 248 4.3 5.2 0.00 0.00 0.00 42 990.0
20260505202818 81 246 7.8 12.2 0.00 0.00 0.00 42 990.0